Location: Six Mile Lake
(44.9000°N, 79.7170°W)
Time: 02:18:42
(UTC-04:00)

NOAA 18 - Pass Details

Date: 06 July 2022
Orbit: 839 x 860 km, 98.9° (Epoch: 15 August)

Event Time Altitude Azimuth Distance (km) Brightness Sun altitude
Exits shadow 00:37:47 - 237° (WSW) 2,744 7.7 -21.6°
Reaches altitude 10° 00:39:15 10° 250° (WSW) 2,486 7.5 -21.7°
Maximum altitude 00:41:21 12° 273° (W) 2,342 7.6 -21.7°
Drops below altitude 10° 00:43:27 10° 296° (WNW) 2,497 8.1 -21.8°
Sets 00:47:36 0° 326° (NW) 3,444 9.5 -21.9°
